This demonstration page uses our WeatherBlox Daily Observations layout. Learn more.

Left ArrowRight Arrow

Hourly Observations for February 1, 2020

Temp ( °F °C ) Dew Point ( °F °C ) Humidity (%) Winds ( mph kmh ) Pressure ( in mb ) Visibility ( mi km ) Precip ( " mm )
12:15 am 00:15 Cloudy 34 1 34 1 100 100 Calm 30.15 1021 5 8.0467 N/A
12:35 am 00:35 Cloudy 34 1 34 1 100 100 Calm 30.15 1021 5 8.0467 N/A
12:55 am 00:55 Cloudy 34 1 34 1 100 100 ESE 3 6 30.14 1021 4 6.43736 N/A
1:16 am 01:16 Cloudy 34 1 34 1 100 100 ESE 3 6 30.14 1021 5 8.0467 N/A
1:35 am 01:35 Cloudy 34 1 34 1 100 100 SE 3 6 30.13 1020 5 8.0467 N/A
1:55 am 01:55 Cloudy 34 1 34 1 100 100 Calm 30.12 1020 5 8.0467 N/A
2:15 am 02:15 Cloudy 34 1 34 1 100 100 ESE 3 6 30.11 1020 5 8.0467 N/A
2:36 am 02:36 Cloudy 34 1 34 1 100 100 ESE 3 6 30.11 1020 5 8.0467 N/A
2:55 am 02:55 Cloudy 34 1 34 1 100 100 Calm 30.11 1020 5 8.0467 N/A
3:16 am 03:16 Cloudy 34 1 34 1 100 100 SE 3 6 30.11 1020 5 8.0467 N/A
3:36 am 03:36 Cloudy 34 1 34 1 100 100 Calm 30.1 1019 5 8.0467 N/A
3:55 am 03:55 Cloudy 34 1 34 1 100 100 ESE 3 6 30.09 1019 5 8.0467 N/A
4:16 am 04:16 Cloudy 34 1 34 1 100 100 Calm 30.09 1019 5 8.0467 N/A
4:36 am 04:36 Cloudy 34 1 34 1 100 100 Calm 30.08 1019 5 8.0467 N/A
4:56 am 04:56 Cloudy 34 1 34 1 100 100 Calm 30.07 1018 5 8.0467 N/A
5:16 am 05:16 Cloudy 34 1 34 1 100 100 Calm 30.07 1018 5 8.0467 N/A
5:35 am 05:35 Cloudy 34 1 34 1 100 100 SE 5 7 30.06 1018 5 8.0467 N/A
5:56 am 05:56 Cloudy 34 1 34 1 100 100 Calm 30.06 1018 5 8.0467 N/A
6:15 am 06:15 Cloudy 34 1 34 1 100 100 SSE 5 7 30.06 1018 5 8.0467 N/A
6:36 am 06:36 Cloudy 34 1 34 1 100 100 SSE 3 6 30.06 1018 4 6.43736 N/A
6:56 am 06:56 Cloudy 34 1 34 1 100 100 SSE 5 7 30.05 1018 3 4.82802 N/A
7:16 am 07:16 Cloudy 34 1 34 1 100 100 SE 6 9 30.05 1018 2.5 4.02335 N/A
7:36 am 07:36 Cloudy 34 1 34 1 100 100 S 6 9 30.05 1018 1.5 2.41401 N/A
7:55 am 07:55 Cloudy 34 1 34 1 100 100 SSE 6 9 30.04 1017 0.75 1.207005 N/A
8:15 am 08:15 Cloudy 34 1 34 1 100 100 S 6 9 30.04 1017 0.25 0.402335 N/A
8:36 am 08:36 Cloudy 34 1 34 1 100 100 S 7 11 30.04 1017 0.25 0.402335 N/A
8:56 am 08:56 Cloudy 34 1 34 1 100 100 S 6 9 30.04 1017 0.25 0.402335 N/A
9:16 am 09:16 Cloudy 34 1 34 1 100 100 S 6 9 30.04 1017 0.25 0.402335 N/A
9:35 am 09:35 Cloudy 34 1 34 1 100 100 S 8 13 30.03 1017 0.25 0.402335 N/A
9:56 am 09:56 Cloudy 34 1 34 1 100 100 S 6 9 30.02 1017 0.75 1.207005 N/A
10:15 am 10:15 Cloudy 36 2 36 2 100 100 S 7 11 30.02 1017 1.25 2.011675 N/A
10:36 am 10:36 Cloudy 36 2 36 2 100 100 S 8 13 30.01 1016 1.75 2.816345 N/A
10:56 am 10:56 Cloudy 36 2 36 2 100 100 SSW 8 13 30 1016 2 3.21868 N/A
11:15 am 11:15 Cloudy 36 2 36 2 100 100 SSW 8 13 30 1016 2.5 4.02335 N/A
11:35 am 11:35 Cloudy 37 3 37 3 100 100 SSW 8 13 29.98 1015 3 4.82802 N/A
11:56 am 11:56 Cloudy 37 3 37 3 100 100 SW 9 15 29.98 1015 3 4.82802 N/A
12:16 pm 12:16 Cloudy 37 3 37 3 100 100 SW 8 13 29.97 1015 3 4.82802 N/A
12:36 pm 12:36 Cloudy 37 3 37 3 100 100 SW 8 13 29.96 1015 2.5 4.02335 N/A
12:55 pm 12:55 Cloudy 37 3 37 3 100 100 SW 8 13 29.95 1014 2 3.21868 N/A
1:15 pm 13:15 Cloudy 37 3 37 3 100 100 SW 7 11 29.95 1014 2 3.21868 N/A
1:35 pm 13:35 Cloudy 37 3 37 3 100 100 SW 9 15 29.92 1013 3 4.82802 N/A
1:55 pm 13:55 Cloudy 37 3 37 3 100 100 SW 9 15 29.91 1013 4 6.43736 N/A
2:16 pm 14:16 Cloudy 37 3 37 3 100 100 WSW 9 15 29.91 1013 5 8.0467 N/A
2:36 pm 14:36 Cloudy 37 3 37 3 100 100 W 12 19 29.91 1013 4 6.43736 N/A
2:55 pm 14:55 Cloudy 39 4 39 4 100 100 W 13 20 29.9 1013 5 8.0467 N/A
3:15 pm 15:15 Cloudy 39 4 39 4 100 100 WSW 13 20 29.9 1013 7 11.26538 N/A
3:35 pm 15:35 Cloudy 39 4 37 3 93 93 W 14 22 29.9 1013 10 16.0934 N/A
3:55 pm 15:55 Cloudy 39 4 37 3 93 93 W 12 19 29.89 1012 10 16.0934 N/A
4:16 pm 16:16 Cloudy 39 4 36 2 87 87 W 16 26 29.88 1012 10 16.0934 N/A
4:35 pm 16:35 Cloudy 37 3 34 1 87 87 WSW 20 31 29.88 1012 10 16.0934 N/A
4:55 pm 16:55 Cloudy 37 3 36 2 93 93 W 21 33 29.89 1012 10 16.0934 N/A
5:15 pm 17:15 Cloudy 36 2 34 1 93 93 W 20 31 29.9 1012 10 16.0934 N/A
5:35 pm 17:35 Cloudy 36 2 34 1 93 93 W 16 26 29.91 1013 10 16.0934 N/A
5:56 pm 17:56 Cloudy 36 2 34 1 93 93 W 17 28 29.91 1013 10 16.0934 N/A
6:55 pm 18:55 Cloudy 36 2 36 2 100 100 W 16 26 29.92 1013 10 16.0934 N/A
8:35 pm 20:35 Cloudy 36 2 34 1 93 93 W 20 31 29.93 1013 10 16.0934 N/A
9:36 pm 21:36 Cloudy 34 1 34 1 100 100 W 14 22 29.93 1014 10 16.0934 N/A
9:55 pm 21:55 Cloudy 34 1 34 1 100 100 W 13 20 29.93 1014 10 16.0934 N/A
10:15 pm 22:15 Cloudy 36 2 34 1 93 93 W 15 24 29.93 1013 10 16.0934 N/A
10:36 pm 22:36 Cloudy 36 2 34 1 93 93 W 17 28 29.94 1014 10 16.0934 N/A
10:55 pm 22:55 Cloudy 36 2 34 1 93 93 W 17 28 29.94 1014 10 16.0934 N/A
11:16 pm 23:16 Cloudy 36 2 34 1 93 93 WSW 14 22 29.93 1013 10 16.0934 N/A
11:36 pm 23:36 Cloudy 34 1 34 1 100 100 W 12 19 29.93 1014 10 16.0934 N/A
11:56 pm 23:56 Cloudy 34 1 34 1 100 100 WSW 10 17 29.91 1013 10 16.0934 N/A

Powered by AerisWeather